Погода в Щучьем

Россия / Воронежская область     50°56′15″N   39°44′23″E
темп.,
°C
ветер,
м/с
пор.,
м/с
влажн.,
%
обл.,
%
осадки,
мм/ч
давл.,
гПа
погр.,
м
10 апреля, сб
сб1000:00+5ссв366223 0.0 1025112
03:00+3ссв357176 0.0 102695
06:00+3с387281 0.0 1026196
09:00+7ссв58564 0.0 1026624
12:00+10ссв67438 0.0 10251443
15:00+12ссв67385 0.0 10241555
18:00+10с58445 0.0 1024725
21:00+7с49555 0.0 1025214
11 апреля, вс
вс1100:00+5с4867100 0.0 1025173
03:00+4с41170100 0.0 1026287
06:00+4с51372100 0.0 1027382
09:00+8ссв8135575 0.0 1027707
12:00+11ссв71041100 0.0 1026978
15:00+12ссв81042100 0.0 10251078
18:00+11ссв61057100 0.0 1026633
21:00+9св61084100 0.0 1026555
12 апреля, пн
пн1200:00+8св4889100 0.0 1026314
03:00+7св4996100 0.0 1025224
06:00+7св41096100 0.0 1025224
09:00+12всв5873100 0.0 1024311
12:00+19вюв683998 0.0 1023853
15:00+22вюв793283 0.0 10221472
18:00+19вюв5104499 0.0 1022317
21:00+15вюв4115876 0.0 1024240
13 апреля, вт
вт1300:00+12вюв387011 0.0 1024134
03:00+10вюв377096 0.0 1024137
06:00+9вюв397271 0.0 1024166
09:00+14юв5857100 0.0 1024349
12:00+19юв693986 0.0 10231173
15:00+21юв793076 0.0 10221591
18:00+18юв5944100 0.0 1022352
21:00+15юв51355100 0.0 1023388
14 апреля, ср
ср1400:00+14вюв4116399 0.0 1022310
03:00+13в41061100 0.0 1021233
06:00+11вюв396490 0.0 1021209
09:00+15юв595593 0.0 1021470
12:00+19юв683899 0.0 10191528
15:00+20юв6732100 0.0 10182070
18:00+17ююв3641100 0.0 1018216
21:00+14вюв3447100 0.0 101762